Time,TemperatureF,DewpointF,PressureIn,WindDirection,WindDirectionDegrees,WindSpeedMPH,WindSpeedGustMPH,Humidity,HourlyPrecipIn,Conditions,Clouds,dailyrainin,SoftwareType,DateUTC
2013-04-03 00:00:00,21.3,14.9,30.36,WSW,248,0.0,0.0,76,0.00,,SKC,0.00,VWS V14.01,2013-04-03 05:00:00,
2013-04-03 00:08:00,20.9,15.0,30.36,WSW,237,0.0,-999.0,77,-99.99,,,0.00,weatherlink.com 1.10,2013-04-03 05:08:00,
2013-04-03 00:23:00,20.3,14.0,30.36,WSW,237,0.0,-999.0,77,-99.99,,,0.00,weatherlink.com 1.10,2013-04-03 05:23:00,
2013-04-03 00:30:00,20.1,14.1,30.36,WSW,248,0.0,0.0,77,0.00,,SKC,0.00,VWS V14.01,2013-04-03 05:30:00,
2013-04-03 00:38:00,19.7,14.0,30.36,WSW,237,0.0,-999.0,78,-99.99,,,0.00,weatherlink.com 1.10,2013-04-03 05:38:00,
2013-04-03 00:53:00,19.1,14.0,30.37,WSW,237,0.0,-999.0,79,-99.99,,,0.00,weatherlink.com 1.10,2013-04-03 05:53:00,
2013-04-03 01:00:00,19.1,14.0,30.37,WSW,248,0.0,0.0,80,0.00,,SKC,0.00,VWS V14.01,2013-04-03 06:00:00,
2013-04-03 01:08:00,19.0,14.0,30.37,WSW,237,0.0,-999.0,81,-99.99,,,0.00,weatherlink.com 1.10,2013-04-03 06:08:00,
2013-04-03 01:23:00,18.6,14.0,30.37,WSW,237,0.0,-999.0,82,-99.99,,,0.00,weatherlink.com 1.10,2013-04-03 06:23:00,
2013-04-03 01:30:00,18.5,13.9,30.37,WSW,248,0.0,0.0,82,0.00,,SKC,0.00,VWS V14.01,2013-04-03 06:30:00,
2013-04-03 01:38:00,18.1,14.0,30.37,WSW,237,0.0,-999.0,83,-99.99,,,0.00,weatherlink.com 1.10,2013-04-03 06:38:00,
2013-04-03 01:53:00,17.7,14.0,30.38,WSW,237,0.0,-999.0,84,-99.99,,,0.00,weatherlink.com 1.10,2013-04-03 06:53:00,
2013-04-03 02:00:00,17.6,13.6,30.38,WSW,248,0.0,0.0,84,0.00,,SKC,0.00,VWS V14.01,2013-04-03 07:00:00,
2013-04-03 02:08:00,17.2,13.0,30.38,WSW,237,0.0,-999.0,84,-99.99,,,0.00,weatherlink.com 1.10,2013-04-03 07:08:00,
2013-04-03 02:23:00,16.8,13.0,30.38,WSW,237,0.0,-999.0,85,-99.99,,,0.00,weatherlink.com 1.10,2013-04-03 07:23:00,
2013-04-03 02:30:00,16.7,13.0,30.38,WSW,248,0.0,0.0,85,0.00,,SKC,0.00,VWS V14.01,2013-04-03 07:30:00,
2013-04-03 02:38:00,16.4,13.0,30.37,WSW,237,0.0,-999.0,85,-99.99,,,0.00,weatherlink.com 1.10,2013-04-03 07:38:00,
2013-04-03 02:53:00,15.9,13.0,30.37,WSW,237,0.0,-999.0,86,-99.99,,,0.00,weatherlink.com 1.10,2013-04-03 07:53:00,
2013-04-03 03:00:00,15.7,12.3,30.36,WSW,248,0.0,0.0,86,0.00,,SKC,0.00,VWS V14.01,2013-04-03 08:00:00,
2013-04-03 03:08:00,15.5,12.0,30.37,WSW,237,0.0,-999.0,87,-99.99,,,0.00,weatherlink.com 1.10,2013-04-03 08:08:00,
2013-04-03 03:23:00,15.2,12.0,30.37,WSW,237,0.0,-999.0,87,-99.99,,,0.00,weatherlink.com 1.10,2013-04-03 08:23:00,
2013-04-03 03:30:00,15.0,11.8,30.37,WSW,248,0.0,0.0,87,0.00,,SKC,0.00,VWS V14.01,2013-04-03 08:30:00,
2013-04-03 03:38:00,14.8,12.0,30.37,WSW,237,0.0,-999.0,87,-99.99,,,0.00,weatherlink.com 1.10,2013-04-03 08:38:00,
2013-04-03 03:53:00,14.4,12.0,30.37,WSW,237,0.0,-999.0,88,-99.99,,,0.00,weatherlink.com 1.10,2013-04-03 08:53:00,
2013-04-03 04:00:00,14.3,11.4,30.37,WSW,248,0.0,0.0,88,0.00,,SKC,0.00,VWS V14.01,2013-04-03 09:00:00,
2013-04-03 04:08:00,14.3,12.0,30.37,WSW,237,0.0,-999.0,89,-99.99,,,0.00,weatherlink.com 1.10,2013-04-03 09:08:00,
2013-04-03 04:23:00,14.0,11.0,30.37,WSW,237,0.0,-999.0,89,-99.99,,,0.00,weatherlink.com 1.10,2013-04-03 09:23:00,
2013-04-03 04:30:00,13.9,11.3,30.37,WSW,248,0.0,0.0,89,0.00,,SKC,0.00,VWS V14.01,2013-04-03 09:30:00,
2013-04-03 04:38:00,13.7,11.0,30.37,WSW,237,0.0,-999.0,89,-99.99,,,0.00,weatherlink.com 1.10,2013-04-03 09:38:00,
2013-04-03 04:53:00,13.6,11.0,30.37,WSW,237,0.0,-999.0,90,-99.99,,,0.00,weatherlink.com 1.10,2013-04-03 09:53:00,
2013-04-03 05:00:00,13.5,11.1,30.37,WSW,248,0.0,0.0,90,0.00,,SKC,0.00,VWS V14.01,2013-04-03 10:00:00,
2013-04-03 05:08:00,13.3,11.0,30.38,WSW,237,0.0,-999.0,90,-99.99,,,0.00,weatherlink.com 1.10,2013-04-03 10:08:00,
2013-04-03 05:23:00,13.1,11.0,30.38,WSW,237,0.0,-999.0,90,-99.99,,,0.00,weatherlink.com 1.10,2013-04-03 10:23:00,
2013-04-03 05:30:00,13.0,10.6,30.38,WSW,248,0.0,0.0,90,0.00,,SKC,0.00,VWS V14.01,2013-04-03 10:30:00,
2013-04-03 05:38:00,12.7,10.0,30.37,WSW,237,0.0,-999.0,90,-99.99,,,0.00,weatherlink.com 1.10,2013-04-03 10:38:00,
2013-04-03 05:53:00,12.6,10.0,30.38,WSW,237,0.0,-999.0,90,-99.99,,,0.00,weatherlink.com 1.10,2013-04-03 10:53:00,
2013-04-03 06:00:00,12.5,10.1,30.38,WSW,248,0.0,0.0,90,0.00,,SKC,0.00,VWS V14.01,2013-04-03 11:00:00,
2013-04-03 06:08:00,12.4,10.0,30.37,WSW,237,0.0,-999.0,90,-99.99,,,0.00,weatherlink.com 1.10,2013-04-03 11:08:00,
2013-04-03 06:23:00,12.2,10.0,30.38,WSW,237,0.0,-999.0,90,-99.99,,,0.00,weatherlink.com 1.10,2013-04-03 11:23:00,
2013-04-03 06:30:00,12.2,9.8,30.38,WSW,248,0.0,0.0,90,0.00,,SKC,0.00,VWS V14.01,2013-04-03 11:30:00,
2013-04-03 06:39:00,12.0,10.0,30.38,WSW,237,0.0,-999.0,90,-99.99,,,0.00,weatherlink.com 1.10,2013-04-03 11:39:00,
2013-04-03 06:54:00,11.8,10.0,30.38,WSW,237,0.0,-999.0,90,-99.99,,,0.00,weatherlink.com 1.10,2013-04-03 11:54:00,
2013-04-03 07:00:00,11.8,9.4,30.38,WSW,248,0.0,0.0,90,0.00,,SKC,0.00,VWS V14.01,2013-04-03 12:00:00,
2013-04-03 07:09:00,11.8,10.0,30.38,WSW,237,0.0,-999.0,90,-99.99,,,0.00,weatherlink.com 1.10,2013-04-03 12:09:00,
2013-04-03 07:24:00,12.2,10.0,30.38,WSW,237,0.0,-999.0,91,-99.99,,,0.00,weatherlink.com 1.10,2013-04-03 12:24:00,
2013-04-03 07:30:00,12.6,10.5,30.38,WSW,248,0.0,0.0,91,0.00,,SKC,0.00,VWS V14.01,2013-04-03 12:30:00,
2013-04-03 07:39:00,14.2,13.0,30.38,WSW,237,0.0,-999.0,93,-99.99,,,0.00,weatherlink.com 1.10,2013-04-03 12:39:00,
2013-04-03 07:54:00,17.0,15.0,30.39,WSW,237,0.0,-999.0,92,-99.99,,,0.00,weatherlink.com 1.10,2013-04-03 12:54:00,
2013-04-03 08:00:00,18.2,16.5,30.39,WSW,248,0.0,0.0,93,0.00,,SKC,0.00,VWS V14.01,2013-04-03 13:00:00,
2013-04-03 08:09:00,19.7,17.0,30.39,WSW,237,0.0,-999.0,89,-99.99,,,0.00,weatherlink.com 1.10,2013-04-03 13:09:00,
2013-04-03 08:24:00,22.5,18.0,30.40,WSW,237,0.0,-999.0,83,-99.99,,,0.00,weatherlink.com 1.10,2013-04-03 13:24:00,
2013-04-03 08:30:00,23.3,18.1,30.40,WSW,248,0.0,2.0,80,0.00,,SKC,0.00,VWS V14.01,2013-04-03 13:30:00,
2013-04-03 08:39:00,24.8,18.0,30.40,SE,128,0.0,-999.0,75,-99.99,,,0.00,weatherlink.com 1.10,2013-04-03 13:39:00,
2013-04-03 08:54:00,27.0,19.0,30.39,ESE,120,4.0,-999.0,71,-99.99,,,0.00,weatherlink.com 1.10,2013-04-03 13:54:00,
2013-04-03 09:09:00,28.6,19.0,30.40,ESE,116,1.0,-999.0,67,-99.99,,,0.00,weatherlink.com 1.10,2013-04-03 14:09:00,
2013-04-03 09:24:00,30.4,20.0,30.39,SE,125,4.0,-999.0,65,-99.99,,,0.00,weatherlink.com 1.10,2013-04-03 14:24:00,
2013-04-03 09:30:00,31.0,20.3,30.39,SE,135,2.0,7.0,64,0.00,,SKC,0.00,VWS V14.01,2013-04-03 14:30:00,
2013-04-03 09:39:00,32.2,20.0,30.39,ESE,117,6.0,-999.0,60,-99.99,,,0.00,weatherlink.com 1.10,2013-04-03 14:39:00,
2013-04-03 09:54:00,33.0,20.0,30.39,ESE,102,2.0,-999.0,59,-99.99,,,0.00,weatherlink.com 1.10,2013-04-03 14:54:00,
2013-04-03 10:00:00,33.4,19.4,30.39,ESE,112,4.0,9.0,56,0.00,,SKC,0.00,VWS V14.01,2013-04-03 15:00:00,
2013-04-03 10:09:00,34.2,19.0,30.38,South,186,2.0,-999.0,53,-99.99,,,0.00,weatherlink.com 1.10,2013-04-03 15:09:00,
2013-04-03 10:24:00,35.5,18.0,30.38,ESE,113,6.0,-999.0,50,-99.99,,,0.00,weatherlink.com 1.10,2013-04-03 15:24:00,
2013-04-03 10:30:00,35.7,18.9,30.37,SE,135,4.0,12.0,50,0.00,,SKC,0.00,VWS V14.01,2013-04-03 15:30:00,
2013-04-03 10:39:00,35.8,19.0,30.37,SE,126,4.0,-999.0,50,-99.99,,,0.00,weatherlink.com 1.10,2013-04-03 15:39:00,
2013-04-03 10:54:00,36.3,18.0,30.36,SSE,168,4.0,-999.0,48,-99.99,,,0.00,weatherlink.com 1.10,2013-04-03 15:54:00,
2013-04-03 11:00:00,36.5,19.2,30.35,ESE,112,5.0,13.0,49,0.00,,SKC,0.00,VWS V14.01,2013-04-03 16:00:00,
2013-04-03 11:09:00,37.3,18.0,30.35,ESE,117,4.0,-999.0,46,-99.99,,,0.00,weatherlink.com 1.10,2013-04-03 16:09:00,
2013-04-03 11:24:00,38.1,18.0,30.34,ESE,123,9.0,-999.0,45,-99.99,,,0.00,weatherlink.com 1.10,2013-04-03 16:24:00,
2013-04-03 11:30:00,38.1,17.6,30.34,SE,135,3.0,12.0,43,0.00,,SKC,0.00,VWS V14.01,2013-04-03 16:30:00,
2013-04-03 11:39:00,37.9,18.0,30.34,ESE,110,8.0,-999.0,45,-99.99,,,0.00,weatherlink.com 1.10,2013-04-03 16:39:00,
2013-04-03 11:54:00,38.2,18.0,30.33,ESE,113,4.0,-999.0,44,-99.99,,,0.00,weatherlink.com 1.10,2013-04-03 16:54:00,
2013-04-03 12:00:00,38.4,18.4,30.33,ESE,112,5.0,14.0,44,0.00,,SKC,0.00,VWS V14.01,2013-04-03 17:00:00,
2013-04-03 12:10:00,38.5,18.0,30.32,ESE,115,2.0,-999.0,43,-99.99,,,0.00,weatherlink.com 1.10,2013-04-03 17:10:00,
2013-04-03 12:25:00,38.7,18.0,30.30,ENE,77,2.0,-999.0,44,-99.99,,,0.00,weatherlink.com 1.10,2013-04-03 17:25:00,
2013-04-03 12:30:00,38.7,18.1,30.30,ESE,112,6.0,15.0,43,0.00,,SKC,0.00,VWS V14.01,2013-04-03 17:30:00,
2013-04-03 12:40:00,39.5,19.0,30.30,SE,126,13.0,-999.0,44,-99.99,,,0.00,weatherlink.com 1.10,2013-04-03 17:40:00,
2013-04-03 12:55:00,39.8,19.0,30.30,ESE,123,4.0,-999.0,44,-99.99,,,0.00,weatherlink.com 1.10,2013-04-03 17:55:00,
2013-04-03 13:00:00,39.9,18.7,30.30,SE,135,4.0,13.0,42,0.00,,SKC,0.00,VWS V14.01,2013-04-03 18:00:00,
2013-04-03 13:10:00,40.0,20.0,30.29,ESE,123,7.0,-999.0,45,-99.99,,,0.00,weatherlink.com 1.10,2013-04-03 18:10:00,
2013-04-03 13:25:00,40.5,19.0,30.28,SSE,150,6.0,-999.0,43,-99.99,,,0.00,weatherlink.com 1.10,2013-04-03 18:25:00,
2013-04-03 13:30:00,40.5,19.8,30.28,SE,135,5.0,14.0,43,0.00,,SKC,0.00,VWS V14.01,2013-04-03 18:30:00,
2013-04-03 13:40:00,40.9,19.0,30.27,SE,131,12.0,-999.0,42,-99.99,,,0.00,weatherlink.com 1.10,2013-04-03 18:40:00,
2013-04-03 14:00:00,41.5,21.2,30.26,ESE,112,6.0,18.0,44,0.00,,SKC,0.00,VWS V14.01,2013-04-03 19:00:00,
2013-04-03 14:10:00,41.6,20.0,30.26,ESE,117,7.0,-999.0,43,-99.99,,,0.00,weatherlink.com 1.10,2013-04-03 19:10:00,
2013-04-03 14:25:00,41.8,22.0,30.25,SE,131,5.0,-999.0,45,-99.99,,,0.00,weatherlink.com 1.10,2013-04-03 19:25:00,
2013-04-03 14:30:00,42.0,22.2,30.25,ESE,112,7.0,19.0,45,0.00,,SKC,0.00,VWS V14.01,2013-04-03 19:30:00,
2013-04-03 14:40:00,42.4,22.0,30.24,SE,144,10.0,-999.0,45,-99.99,,,0.00,weatherlink.com 1.10,2013-04-03 19:40:00,
2013-04-03 14:55:00,42.7,23.0,30.23,SE,133,12.0,-999.0,46,-99.99,,,0.00,weatherlink.com 1.10,2013-04-03 19:55:00,
2013-04-03 15:00:00,42.7,22.3,30.23,ESE,112,7.0,20.0,44,0.00,,SKC,0.00,VWS V14.01,2013-04-03 20:00:00,
2013-04-03 15:10:00,42.7,22.0,30.23,SE,137,4.0,-999.0,44,-99.99,,,0.00,weatherlink.com 1.10,2013-04-03 20:10:00,
2013-04-03 15:25:00,43.3,24.0,30.22,SSE,152,7.0,-999.0,46,-99.99,,,0.00,weatherlink.com 1.10,2013-04-03 20:25:00,
2013-04-03 15:30:00,43.3,24.4,30.22,SE,135,7.0,19.0,47,0.00,,SKC,0.00,VWS V14.01,2013-04-03 20:30:00,
2013-04-03 15:40:00,43.3,24.0,30.21,SE,126,15.0,-999.0,47,-99.99,,,0.00,weatherlink.com 1.10,2013-04-03 20:40:00,
2013-04-03 15:55:00,43.5,25.0,30.20,SE,130,5.0,-999.0,48,-99.99,,,0.00,weatherlink.com 1.10,2013-04-03 20:55:00,
2013-04-03 16:00:00,43.7,25.8,30.20,SE,135,7.0,18.0,49,0.00,,SKC,0.00,VWS V14.01,2013-04-03 21:00:00,
2013-04-03 16:10:00,43.7,25.0,30.19,SSE,153,7.0,-999.0,49,-99.99,,,0.00,weatherlink.com 1.10,2013-04-03 21:10:00,
2013-04-03 16:25:00,44.0,26.0,30.18,ESE,123,6.0,-999.0,49,-99.99,,,0.00,weatherlink.com 1.10,2013-04-03 21:25:00,
2013-04-03 16:30:00,43.9,26.0,30.18,SE,135,7.0,17.0,49,0.00,,SKC,0.00,VWS V14.01,2013-04-03 21:30:00,
2013-04-03 16:40:00,44.0,26.0,30.18,SE,132,8.0,-999.0,50,-99.99,,,0.00,weatherlink.com 1.10,2013-04-03 21:40:00,
2013-04-03 16:55:00,44.1,26.0,30.18,ESE,116,6.0,-999.0,50,-99.99,,,0.00,weatherlink.com 1.10,2013-04-03 21:55:00,
2013-04-03 17:00:00,43.9,26.5,30.18,SE,135,6.0,15.0,50,0.00,,SKC,0.00,VWS V14.01,2013-04-03 22:00:00,
2013-04-03 17:10:00,43.6,27.0,30.17,East,101,5.0,-999.0,52,-99.99,,,0.00,weatherlink.com 1.10,2013-04-03 22:10:00,
2013-04-03 17:25:00,43.4,27.0,30.17,SE,134,5.0,-999.0,53,-99.99,,,0.00,weatherlink.com 1.10,2013-04-03 22:25:00,
2013-04-03 17:30:00,43.3,27.3,30.16,ESE,112,5.0,17.0,53,0.00,,SKC,0.00,VWS V14.01,2013-04-03 22:30:00,
2013-04-03 17:40:00,43.3,27.0,30.16,ESE,109,5.0,-999.0,54,-99.99,,,0.00,weatherlink.com 1.10,2013-04-03 22:40:00,
2013-04-03 17:55:00,43.9,28.0,30.16,West,267,5.0,-999.0,54,-99.99,,,0.00,weatherlink.com 1.10,2013-04-03 22:55:00,
2013-04-03 18:00:00,43.9,28.4,30.15,ESE,112,3.0,13.0,54,0.00,,SKC,0.00,VWS V14.01,2013-04-03 23:00:00,
2013-04-03 18:10:00,43.9,28.0,30.15,SE,137,4.0,-999.0,54,-99.99,,,0.00,weatherlink.com 1.10,2013-04-03 23:10:00,
2013-04-03 18:25:00,43.6,29.0,30.14,SE,142,4.0,-999.0,56,-99.99,,,0.00,weatherlink.com 1.10,2013-04-03 23:25:00,
2013-04-03 18:30:00,43.6,29.0,30.14,SE,135,3.0,13.0,56,0.00,,SKC,0.00,VWS V14.01,2013-04-03 23:30:00,
2013-04-03 18:40:00,43.4,29.0,30.14,SE,126,4.0,-999.0,57,-99.99,,,0.00,weatherlink.com 1.10,2013-04-03 23:40:00,
2013-04-03 18:56:00,42.8,29.0,30.13,SE,138,1.0,-999.0,58,-99.99,,,0.00,weatherlink.com 1.10,2013-04-03 23:56:00,
2013-04-03 19:00:00,42.7,29.4,30.13,SE,135,4.0,13.0,59,0.00,,SKC,0.00,VWS V14.01,2013-04-04 00:00:00,
2013-04-03 19:26:00,42.0,30.0,30.11,SE,143,0.0,-999.0,62,-99.99,,,0.00,weatherlink.com 1.10,2013-04-04 00:26:00,
2013-04-03 19:30:00,42.0,29.9,30.11,SE,135,3.0,8.0,62,0.00,,SKC,0.00,VWS V14.01,2013-04-04 00:30:00,
2013-04-03 19:41:00,41.6,30.0,30.10,ESE,122,1.0,-999.0,64,-99.99,,,0.00,weatherlink.com 1.10,2013-04-04 00:41:00,
2013-04-03 19:56:00,41.6,31.0,30.09,SSE,163,2.0,-999.0,66,-99.99,,,0.00,weatherlink.com 1.10,2013-04-04 00:56:00,
2013-04-03 20:11:00,41.3,31.0,30.09,ESE,114,6.0,-999.0,67,-99.99,,,0.00,weatherlink.com 1.10,2013-04-04 01:11:00,
2013-04-03 20:26:00,41.2,31.0,30.08,ESE,121,0.0,-999.0,68,-99.99,,,0.00,weatherlink.com 1.10,2013-04-04 01:26:00,
2013-04-03 20:30:00,41.1,31.4,30.08,SE,135,4.0,9.0,68,0.00,,SKC,0.00,VWS V14.01,2013-04-04 01:30:00,
2013-04-03 21:00:00,40.7,31.7,30.07,SE,135,4.0,11.0,70,0.00,,SKC,0.00,VWS V14.01,2013-04-04 02:00:00,
2013-04-03 21:11:00,40.8,32.0,30.06,SE,133,6.0,-999.0,70,-99.99,,,0.00,weatherlink.com 1.10,2013-04-04 02:11:00,
2013-04-03 21:30:00,40.7,32.0,30.06,SE,135,6.0,14.0,71,0.00,,SKC,0.00,VWS V14.01,2013-04-04 02:30:00,
2013-04-03 22:00:00,40.9,32.2,30.05,SE,135,6.0,15.0,71,0.00,,SKC,0.00,VWS V14.01,2013-04-04 03:00:00,
2013-04-03 22:11:00,40.8,32.0,30.04,SE,130,5.0,-999.0,71,-99.99,,,0.00,weatherlink.com 1.10,2013-04-04 03:11:00,
2013-04-03 22:30:00,40.8,32.1,30.04,SE,135,5.0,17.0,71,0.00,,SKC,0.00,VWS V14.01,2013-04-04 03:30:00,
2013-04-03 22:41:00,40.8,32.0,30.03,SE,132,4.0,-999.0,71,-99.99,,,0.00,weatherlink.com 1.10,2013-04-04 03:41:00,
2013-04-03 22:56:00,40.9,32.0,30.02,ESE,113,7.0,-999.0,71,-99.99,,,0.00,weatherlink.com 1.10,2013-04-04 03:56:00,
2013-04-03 23:00:00,40.9,32.2,30.02,SE,135,5.0,15.0,71,0.00,,SKC,0.00,VWS V14.01,2013-04-04 04:00:00,
2013-04-03 23:11:00,41.1,32.0,30.02,SE,135,0.0,-999.0,70,-99.99,,,0.00,weatherlink.com 1.10,2013-04-04 04:11:00,
2013-04-03 23:26:00,41.3,32.0,30.01,SE,133,4.0,-999.0,69,-99.99,,,0.00,weatherlink.com 1.10,2013-04-04 04:26:00,
2013-04-03 23:30:00,41.4,32.0,30.01,SE,135,5.0,15.0,69,0.00,,SKC,0.00,VWS V14.01,2013-04-04 04:30:00,
2013-04-03 23:56:00,41.6,32.0,30.01,North,355,1.0,-999.0,68,-99.99,,,0.00,weatherlink.com 1.10,2013-04-04 04:56:00,